KC5TXI Weather Reports


Display with metric or nautical units.
time (UTC)temp
F
wind
direction
speed
MPH
gust
MPH
rain 1hr
in
rain 24hr
in
rain mn
in
humidity
%
barometer
mb
20181015083523 44 327 0.0 9.0 0.04 1.00 0.84 97 1020.9
20181015083024 44 74 3.0 5.0 0.08 1.00 0.84 97 1020.9
20181015082523 44 324 3.0 7.0 0.08 1.00 0.84 97 1020.9
20181015082023 44 3 5.0 8.0 0.08 1.00 0.84 97 1019.9
20181015081523 44 94 7.0 10.0 0.08 1.00 0.84 97 1019.9
20181015081023 45 356 4.0 10.0 0.08 1.00 0.84 97 1019.9
20181015080523 45 342 4.0 10.0 0.08 1.00 0.84 97 1020.9
20181015080023 46 345 0.0 6.0 0.08 1.00 0.84 97 1020.9
20181015075538 46 356 0.0 6.0 0.12 1.00 0.84 97 1020.9
20181015075023 46 347 5.0 7.0 0.12 1.00 0.84 97 1019.9
20181015074523 46 313 0.0 7.0 0.12 1.00 0.84 97 1019.9
20181015074023 46 330 0.0 9.0 0.08 0.96 0.80 97 1019.9
20181015073538 46 77 3.0 9.0 0.12 0.96 0.80 97 1019.9
20181015073023 46 335 0.0 5.0 0.16 0.92 0.76 97 1019.9
20181015072538 46 75 0.0 7.0 0.36 0.92 0.76 97 1019.9
20181015072023 47 319 4.0 7.0 0.52 0.92 0.76 97 1019.9
20181015071523 47 329 0.0 7.0 0.60 0.92 0.76 97 1019.9
20181015071023 47 356 0.0 10.0 0.72 0.92 0.76 97 1019.9
20181015070523 47 0 0.0 10.0 0.76 0.92 0.76 97 1019.9
20181015070053 47 69 5.0 8.0 0.76 0.92 0.76 97 1019.9
20181015065523 47 351 0.0 8.0 0.72 0.88 0.72 97 1019.9
20181015065039 47 230 7.0 7.0 0.72 0.88 0.72 97 1019.9
20181015064523 47 51 0.0 7.0 0.72 0.88 0.72 97 1019.9
20181015064023 47 315 0.0 7.0 0.72 0.88 0.72 97 1019.9
20181015063524 48 345 7.0 7.0 0.68 0.84 0.68 96 1020.9
20181015063025 48 63 4.0 6.0 0.60 0.76 0.60 95 1020.9
20181015062523 48 343 0.0 9.0 0.40 0.56 0.40 95 1020.9
20181015062039 48 304 5.0 10.0 0.24 0.40 0.24 93 1018.9
20181015061523 48 345 5.0 10.0 0.16 0.32 0.16 92 1018.9
20181015061023 49 347 0.0 6.0 0.04 0.20 0.04 91 1018.9
20181015060523 49 351 0.0 7.0 0.00 0.16 0.00 91 1018.9
20181015060038 49 324 0.0 10.0 0.00 0.16 0.00 91 1018.9
20181015055523 49 342 5.0 10.0 0.00 0.16 0.00 93 1018.9
20181015055023 49 324 0.0 6.0 0.00 0.16 0.00 94 1018.9
20181015054523 49 328 0.0 8.0 0.00 0.16 0.00 94 1018.9
20181015054023 49 329 0.0 8.0 0.00 0.16 0.00 94 1018.9
20181015053523 50 346 0.0 5.0 0.00 0.16 0.00 94 1018.9
20181015053023 50 337 0.0 5.0 0.00 0.16 0.00 95 1018.9
20181015052523 50 336 0.0 5.0 0.00 0.16 0.00 96 1018.9
20181015052023 50 5 0.0 5.0 0.00 0.16 0.00 95 1018.9
20181015051553 50 341 0.0 8.0 0.00 0.16 0.00 95 1018.9
20181015051023 50 96 0.0 8.0 0.00 0.16 0.00 95 1018.9
20181015050523 50 169 0.0 8.0 0.00 0.16 0.00 96 1018.9
20181015050023 51 356 0.0 7.0 0.00 0.16 0.00 96 1018.9
20181015045523 51 351 3.0 8.0 0.00 0.16 0.16 96 1018.9
20181015045023 51 334 0.0 8.0 0.00 0.16 0.16 95 1018.9
20181015044523 51 335 0.0 10.0 0.00 0.16 0.16 95 1018.9
20181015044023 51 337 3.0 10.0 0.00 0.16 0.16 95 1018.9
20181015043523 52 351 6.0 7.0 0.00 0.16 0.16 94 1017.9
20181015043023 52 356 0.0 7.0 0.00 0.16 0.16 94 1017.9
20181015042523 53 12 0.0 6.0 0.00 0.16 0.16 94 1017.9
20181015042023 53 335 3.0 7.0 0.00 0.16 0.16 94 1017.9
20181015041524 53 351 0.0 9.0 0.00 0.16 0.16 94 1017.9
20181015041023 54 339 0.0 9.0 0.00 0.16 0.16 93 1017.9
20181015040523 55 327 0.0 7.0 0.00 0.16 0.16 94 1017.9
20181015040038 55 314 5.0 9.0 0.00 0.16 0.16 94 1017.9
20181015035538 55 6 0.0 9.0 0.00 0.16 0.16 94 1017.9
20181015035039 56 344 0.0 8.0 0.00 0.16 0.16 93 1017.9
20181015034523 56 351 0.0 7.0 0.00 0.16 0.16 93 1017.9
20181015034023 56 331 4.0 7.0 0.00 0.16 0.16 93 1017.9
20181015033523 57 24 0.0 7.0 0.00 0.16 0.16 92 1017.9
20181015033023 57 331 3.0 7.0 0.00 0.16 0.16 91 1017.9
20181015032524 58 346 6.0 7.0 0.00 0.16 0.16 89 1017.9
20181015032023 59 351 0.0 7.0 0.00 0.16 0.16 89 1016.9
20181015031523 60 345 0.0 8.0 0.00 0.16 0.16 90 1016.9
20181015031039 62 17 3.0 10.0 0.00 0.16 0.16 94 1016.9
20181015030523 62 67 7.0 10.0 0.04 0.16 0.16 96 1015.9
20181015030023 62 80 0.0 0.0 0.04 0.16 0.16 95 1015.9
20181015025523 62 97 0.0 0.0 0.08 0.16 0.16 95 1015.9
20181015025023 62 293 0.0 3.0 0.08 0.16 0.16 95 1016.9
20181015024523 62 94 0.0 4.0 0.08 0.16 0.16 95 1016.9
20181015024023 62 109 0.0 4.0 0.12 0.16 0.16 96 1016.9
20181015023523 63 108 0.0 3.0 0.12 0.16 0.16 96 1015.9
20181015023023 63 67 0.0 0.0 0.12 0.16 0.16 95 1015.9
20181015022523 63 347 0.0 0.0 0.16 0.16 0.16 95 1015.9
20181015022039 63 305 0.0 3.0 0.16 0.16 0.16 94 1014.9
20181015021523 63 351 0.0 7.0 0.16 0.16 0.16 94 1014.9
20181015021023 63 343 0.0 7.0 0.16 0.16 0.16 94 1014.9
20181015020523 63 324 5.0 5.0 0.12 0.12 0.12 94 1015.9
20181015020023 64 36 0.0 5.0 0.12 0.12 0.12 93 1015.9
20181015015523 64 145 0.0 0.0 0.08 0.08 0.08 92 1015.9
20181015015023 64 272 0.0 3.0 0.08 0.08 0.08 92 1014.9
20181015014523 64 306 0.0 3.0 0.08 0.08 0.08 92 1014.9
20181015014023 64 26 0.0 3.0 0.04 0.04 0.04 92 1014.9
20181015013523 65 336 0.0 5.0 0.04 0.04 0.04 90 1013.9
20181015013023 65 327 0.0 5.0 0.04 0.04 0.04 89 1013.9
20181015012523 65 333 0.0 0.0 0.00 0.00 0.00 88 1013.9
20181015012023 66 335 0.0 6.0 0.00 0.00 0.00 85 1013.9
20181015011523 66 328 0.0 6.0 0.00 0.00 0.00 83 1013.9
20181015011023 66 18 0.0 7.0 0.00 0.00 0.00 81 1013.9
20181015010553 66 93 5.0 7.0 0.00 0.00 0.00 80 1012.9
20181015010023 66 32 0.0 7.0 0.00 0.00 0.00 80 1012.9
20181015005523 67 51 4.0 7.0 0.00 0.00 0.00 81 1012.9
20181015005023 67 351 0.0 4.0 0.00 0.00 0.00 80 1012.9
20181015004523 67 341 0.0 5.0 0.00 0.00 0.00 81 1012.9
20181015004038 67 8 0.0 7.0 0.00 0.00 0.00 80 1012.9
20181015003523 67 14 0.0 7.0 0.00 0.00 0.00 80 1012.9
20181015003023 67 93 5.0 7.0 0.00 0.00 0.00 81 1012.9
20181015002523 67 351 4.0 8.0 0.00 0.00 0.00 82 1012.9
20181015002023 67 347 0.0 8.0 0.00 0.00 0.00 83 1011.9
20181015001523 67 333 0.0 4.0 0.00 0.00 0.00 84 1011.9
20181015001023 67 336 0.0 6.0 0.00 0.00 0.00 84 1011.9
20181015000523 67 334 0.0 6.0 0.00 0.00 0.00 84 1011.9
20181015000023 67 347 4.0 6.0 0.00 0.00 0.00 84 1011.9
20181014235523 67 98 0.0 5.0 0.00 0.00 0.00 84 1011.9
20181014235023 67 59 0.0 0.0 0.00 0.00 0.00 84 1011.9
20181014234553 67 0 0.0 0.0 0.00 0.00 0.00 84 1011.9
20181014234023 67 85 0.0 0.0 0.00 0.00 0.00 83 1011.9
20181014233523 67 23 0.0 5.0 0.00 0.00 0.00 82 1011.9
20181014233023 67 341 0.0 6.0 0.00 0.00 0.00 82 1011.9
20181014232523 68 75 4.0 7.0 0.00 0.00 0.00 82 1011.9
20181014232038 68 344 0.0 7.0 0.00 0.00 0.00 81 1011.9
20181014231523 68 351 5.0 6.0 0.00 0.00 0.00 81 1011.9
20181014231023 68 76 3.0 7.0 0.00 0.00 0.00 80 1011.9
20181014230538 69 325 0.0 8.0 0.00 0.00 0.00 80 1011.9
20181014230023 69 71 5.0 8.0 0.00 0.00 0.00 78 1011.9
20181014225523 70 336 0.0 6.0 0.00 0.00 0.00 76 1011.9
20181014225023 71 334 0.0 7.0 0.00 0.00 0.00 74 1011.9
20181014224523 72 310 4.0 8.0 0.00 0.00 0.00 72 1011.9
20181014224038 74 351 0.0 8.0 0.00 0.00 0.00 70 1011.9
20181014223523 75 14 5.0 7.0 0.00 0.00 0.00 70 1010.9
20181014223038 76 334 0.0 6.0 0.00 0.00 0.00 69 1010.9
20181014222523 77 326 0.0 0.0 0.00 0.00 0.00 75 1010.9
20181014222023 77 252 0.0 0.0 0.00 0.00 0.00 77 1010.9
20181014221523 77 244 0.0 0.0 0.00 0.00 0.00 77 1010.9
20181014221023 77 251 0.0 0.0 0.00 0.00 0.00 77 1010.9
20181014220538 77 242 0.0 0.0 0.00 0.00 0.00 76 1010.9
20181014220023 77 244 0.0 0.0 0.00 0.00 0.00 76 1010.9
20181014215523 77 241 0.0 0.0 0.00 0.00 0.00 76 1010.9
20181014215023 77 241 0.0 0.0 0.00 0.00 0.00 75 1010.9
20181014214538 77 248 0.0 0.0 0.00 0.00 0.00 74 1010.9
20181014214023 78 247 0.0 0.0 0.00 0.00 0.00 74 1010.9
20181014213523 78 246 0.0 0.0 0.00 0.00 0.00 73 1010.9
20181014213023 78 247 0.0 0.0 0.00 0.00 0.00 72 1010.9
20181014212523 78 252 0.0 0.0 0.00 0.00 0.00 72 1010.9
20181014212038 78 241 0.0 0.0 0.00 0.00 0.00 72 1010.9
20181014211523 79 238 0.0 0.0 0.00 0.00 0.00 71 1010.9
20181014211023 79 252 0.0 0.0 0.00 0.00 0.00 71 1010.9
20181014210523 79 239 0.0 0.0 0.00 0.00 0.00 71 1009.9
20181014210023 79 272 0.0 0.0 0.00 0.00 0.00 70 1009.9
20181014205538 79 134 0.0 0.0 0.00 0.00 0.00 69 1009.9
20181014205023 80 136 0.0 0.0 0.00 0.00 0.00 69 1009.9
20181014204538 80 95 0.0 0.0 0.00 0.00 0.00 69 1009.9
20181014204023 80 93 0.0 0.0 0.00 0.00 0.00 68 1009.9
20181014203523 80 94 0.0 0.0 0.00 0.00 0.00 68 1009.9
20181014203023 80 88 0.0 0.0 0.00 0.00 0.00 67 1009.9
20181014202523 81 85 0.0 0.0 0.00 0.00 0.00 65 1009.9
20181014202023 81 110 0.0 0.0 0.00 0.00 0.00 64 1009.9
20181014201523 82 111 0.0 0.0 0.00 0.00 0.00 63 1009.9
20181014201023 83 146 0.0 0.0 0.00 0.00 0.00 64 1009.9
20181014200523 84 151 0.0 4.0 0.00 0.00 0.00 64 1009.9
20181014200052 83 141 0.0 5.0 0.00 0.00 0.00 64 1009.9
20181014195523 83 116 0.0 5.0 0.00 0.00 0.00 65 1009.9
20181014195023 83 256 0.0 4.0 0.00 0.00 0.00 65 1009.9
20181014194523 82 116 0.0 3.0 0.00 0.00 0.00 64 1009.9
20181014194023 82 91 0.0 0.0 0.00 0.00 0.00 67 1009.9
20181014193523 82 239 0.0 0.0 0.00 0.00 0.00 66 1009.9
20181014193023 81 124 0.0 5.0 0.00 0.00 0.00 67 1009.9
20181014192539 81 92 0.0 5.0 0.00 0.00 0.00 67 1009.9
20181014192023 80 179 0.0 0.0 0.00 0.00 0.00 68 1010.9
20181014191523 80 176 0.0 5.0 0.00 0.00 0.00 70 1010.9
20181014191023 79 195 0.0 5.0 0.00 0.00 0.00 71 1010.9
20181014190523 79 168 0.0 4.0 0.00 0.00 0.00 72 1010.9
20181014190053 78 168 0.0 5.0 0.00 0.00 0.00 75 1010.9
20181014185523 77 113 0.0 5.0 0.00 0.00 0.00 75 1010.9
20181014185023 77 291 0.0 5.0 0.00 0.00 0.00 75 1010.9
20181014184523 76 111 0.0 5.0 0.00 0.00 0.00 77 1010.9
20181014184038 76 116 0.0 5.0 0.00 0.00 0.00 77 1010.9
20181014183523 75 278 0.0 5.0 0.00 0.00 0.00 77 1010.9
20181014183023 75 293 0.0 5.0 0.00 0.00 0.00 76 1010.9
20181014182523 75 256 0.0 4.0 0.00 0.00 0.00 77 1010.9
20181014182023 74 114 0.0 5.0 0.00 0.00 0.00 77 1011.9
20181014181538 74 105 0.0 5.0 0.00 0.00 0.00 77 1011.9
20181014181023 73 86 0.0 0.0 0.00 0.00 0.00 77 1011.9
20181014180523 73 280 0.0 3.0 0.00 0.00 0.00 77 1011.9
20181014180023 73 112 0.0 3.0 0.00 0.00 0.00 78 1011.9
20181014175523 72 115 0.0 4.0 0.00 0.00 0.00 77 1011.9
20181014175023 72 114 0.0 4.0 0.00 0.00 0.00 78 1011.9
20181014174523 72 119 4.0 4.0 0.00 0.00 0.00 79 1011.9
20181014174023 72 114 0.0 6.0 0.00 0.00 0.00 79 1011.9
20181014173523 71 118 0.0 6.0 0.00 0.00 0.00 80 1011.9
20181014173023 71 94 0.0 0.0 0.00 0.04 0.00 80 1011.9
20181014172523 70 95 0.0 0.0 0.00 0.04 0.00 81 1011.9
20181014172023 70 97 0.0 0.0 0.00 0.20 0.00 80 1011.9
20181014171523 70 98 0.0 0.0 0.00 0.24 0.00 80 1011.9
20181014171023 69 99 0.0 0.0 0.00 0.36 0.00 79 1011.9
20181014170523 69 91 0.0 0.0 0.00 0.36 0.00 80 1012.9
20181014170023 69 100 0.0 5.0 0.00 0.40 0.00 80 1012.9
20181014165523 69 93 0.0 5.0 0.00 0.48 0.00 81 1012.9
20181014165023 69 91 5.0 5.0 0.00 0.52 0.00 81 1011.9
20181014164523 69 95 0.0 0.0 0.00 0.52 0.00 82 1011.9
20181014164023 69 99 0.0 0.0 0.00 0.60 0.00 82 1011.9
20181014163523 68 96 0.0 3.0 0.00 0.60 0.00 82 1011.9
20181014163023 68 105 0.0 4.0 0.00 0.64 0.00 81 1011.9
20181014162523 68 91 0.0 4.0 0.00 0.68 0.00 82 1011.9
20181014162023 68 109 0.0 0.0 0.00 0.68 0.00 84 1011.9
20181014161523 67 109 0.0 0.0 0.00 0.84 0.00 83 1011.9
20181014161023 67 141 0.0 0.0 0.00 0.92 0.00 84 1011.9
20181014160523 67 91 0.0 0.0 0.00 0.92 0.00 86 1011.9
20181014160023 67 91 0.0 0.0 0.00 0.96 0.00 86 1011.9
20181014155523 66 96 0.0 0.0 0.00 0.96 0.00 87 1011.9
20181014155038 66 139 0.0 0.0 0.00 0.96 0.00 89 1011.9
20181014154538 66 138 0.0 0.0 0.00 0.96 0.00 89 1011.9
20181014154023 66 149 0.0 0.0 0.00 1.00 0.00 90 1011.9
20181014153522 66 141 0.0 0.0 0.00 1.00 0.00 90 1011.9
20181014153052 65 86 0.0 0.0 0.00 1.00 0.00 90 1011.9
20181014152522 65 78 0.0 0.0 0.00 1.00 0.00 91 1011.9
20181014152023 65 72 0.0 0.0 0.00 1.00 0.00 91 1011.9
20181014151523 65 85 0.0 0.0 0.00 1.00 0.00 92 1011.9
20181014151023 64 88 0.0 0.0 0.00 1.00 0.00 92 1011.9
20181014150553 64 77 0.0 0.0 0.00 1.00 0.00 92 1011.9
20181014150023 64 69 0.0 0.0 0.00 1.00 0.00 93 1011.9
20181014145522 64 103 0.0 0.0 0.00 1.00 0.00 94 1011.9
20181014145022 64 108 0.0 0.0 0.00 1.04 0.00 94 1011.9
20181014144523 64 114 0.0 0.0 0.00 1.08 0.00 94 1011.9
20181014144023 63 105 0.0 0.0 0.00 1.08 0.00 95 1011.9
20181014143523 63 114 0.0 0.0 0.00 1.12 0.00 95 1011.9
20181014143023 63 108 0.0 0.0 0.00 1.20 0.00 96 1011.9
20181014142523 63 105 0.0 0.0 0.00 1.28 0.00 96 1011.9
20181014142023 63 63 0.0 0.0 0.00 1.32 0.00 96 1011.9
20181014141523 63 59 0.0 0.0 0.00 1.32 0.00 96 1011.9
20181014141023 62 108 0.0 0.0 0.00 1.32 0.00 96 1011.9
20181014140523 62 120 0.0 0.0 0.00 1.36 0.00 96 1011.9
20181014140023 62 55 0.0 0.0 0.00 1.36 0.00 96 1011.9
20181014135552 62 49 0.0 0.0 0.00 1.36 0.00 96 1011.9
20181014135023 62 44 0.0 0.0 0.00 1.36 0.00 96 1011.9
20181014134538 62 47 0.0 0.0 0.00 1.36 0.00 96 1011.9
20181014134022 62 44 0.0 0.0 0.00 1.36 0.00 96 1011.9
20181014133523 61 45 0.0 0.0 0.00 1.36 0.00 96 1011.9
20181014133023 61 54 0.0 0.0 0.00 1.36 0.00 96 1011.9
20181014132523 61 56 0.0 0.0 0.00 1.36 0.00 96 1011.9
20181014132023 61 54 0.0 0.0 0.00 1.36 0.00 96 1010.9
20181014131538 61 55 0.0 0.0 0.00 1.36 0.00 96 1010.9
20181014131052 61 41 0.0 0.0 0.00 1.36 0.00 96 1010.9
20181014130523 61 50 0.0 0.0 0.00 1.36 0.00 96 1010.9
20181014130023 61 5 0.0 0.0 0.00 1.36 0.00 96 1010.9
20181014125523 61 13 0.0 0.0 0.00 1.36 0.00 96 1010.9
20181014125038 61 19 0.0 0.0 0.00 1.36 0.00 96 1010.9
20181014124523 61 11 0.0 0.0 0.00 1.36 0.00 95 1010.9
20181014124023 61 18 0.0 0.0 0.00 1.36 0.00 95 1010.9
20181014123523 61 11 0.0 0.0 0.00 1.36 0.00 95 1010.9
20181014123023 61 13 0.0 0.0 0.00 1.36 0.00 95 1010.9
20181014122523 61 11 0.0 0.0 0.00 1.36 0.00 95 1010.9
20181014122023 61 12 0.0 0.0 0.00 1.36 0.00 95 1010.9
20181014121552 61 10 0.0 0.0 0.00 1.36 0.00 95 1010.9
20181014121023 61 11 0.0 0.0 0.00 1.36 0.00 95 1010.9
20181014120523 61 15 0.0 0.0 0.00 1.36 0.00 95 1010.9
20181014120023 60 13 0.0 0.0 0.00 1.36 0.00 95 1010.9
20181014115523 60 16 0.0 0.0 0.00 1.36 0.00 95 1010.9
20181014115023 60 14 0.0 0.0 0.00 1.36 0.00 95 1009.9
20181014114523 60 11 0.0 0.0 0.00 1.36 0.00 95 1009.9
20181014114024 60 13 0.0 0.0 0.00 1.36 0.00 95 1009.9
20181014113523 60 15 0.0 0.0 0.00 1.36 0.00 95 1009.9
20181014113023 60 8 0.0 0.0 0.00 1.36 0.00 95 1009.9
20181014112523 61 16 0.0 0.0 0.00 1.36 0.00 95 1009.9
20181014112023 61 9 0.0 0.0 0.00 1.36 0.00 95 1009.9
20181014111538 61 15 0.0 0.0 0.00 1.36 0.00 95 1009.9
20181014111023 61 10 0.0 0.0 0.00 1.36 0.00 95 1009.9
20181014110523 61 11 0.0 0.0 0.00 1.36 0.00 95 1009.9
20181014110023 61 12 0.0 0.0 0.00 1.36 0.00 96 1009.9
20181014105523 61 16 0.0 0.0 0.00 1.36 0.00 96 1009.9
20181014105022 61 9 0.0 0.0 0.00 1.36 0.00 96 1009.9
20181014104523 61 11 0.0 0.0 0.00 1.36 0.00 96 1009.9
20181014104023 61 14 0.0 0.0 0.00 1.36 0.00 96 1009.9
20181014103523 61 10 0.0 0.0 0.00 1.36 0.00 96 1009.9
20181014103023 61 15 0.0 0.0 0.00 1.36 0.00 96 1009.9
20181014102523 61 9 0.0 0.0 0.00 1.36 0.00 96 1009.9
20181014102022 61 11 0.0 0.0 0.00 1.36 0.00 96 1009.9
20181014101523 61 9 0.0 0.0 0.00 1.36 0.00 96 1009.9
20181014101023 61 9 0.0 0.0 0.00 1.36 0.00 96 1009.9
20181014100553 61 12 0.0 0.0 0.00 1.36 0.00 96 1009.9
20181014100025 61 13 0.0 0.0 0.00 1.36 0.00 96 1009.9
20181014095523 61 14 0.0 0.0 0.00 1.36 0.00 96 1009.9
20181014095022 61 9 0.0 0.0 0.00 1.36 0.00 96 1009.9
20181014094523 61 9 0.0 0.0 0.00 1.36 0.00 96 1009.9
20181014094023 61 9 0.0 0.0 0.00 1.36 0.00 96 1009.9
20181014093523 61 13 0.0 0.0 0.00 1.36 0.00 97 1009.9
20181014093023 61 12 0.0 0.0 0.00 1.36 0.00 97 1009.9
20181014092523 61 14 0.0 0.0 0.00 1.36 0.00 97 1009.9
20181014092023 61 10 0.0 0.0 0.00 1.36 0.00 97 1009.9
20181014091523 61 12 0.0 0.0 0.00 1.36 0.00 96 1009.9
20181014091023 61 12 0.0 0.0 0.00 1.36 0.00 96 1009.9
20181014090523 61 14 0.0 0.0 0.00 1.36 0.00 96 1009.9
20181014090023 61 28 0.0 0.0 0.00 1.36 0.00 96 1009.9
20181014085523 61 28 0.0 0.0 0.00 1.36 0.00 96 1009.9
20181014085023 61 24 0.0 0.0 0.00 1.36 0.00 96 1009.9
20181014084523 61 28 0.0 0.0 0.00 1.36 0.00 96 1009.9
20181014084023 61 28 0.0 0.0 0.00 1.36 0.00 96 1009.9